カーンズ-クェー彗星

59P/Kearns-Kwee (2009)

English version
Home page
Updated on October 3, 2010

---------------------------------------------------------------------

・ プロフィール

・ 写真集

・ 軌道要素

The following orbital elements are taken from MPC 64498:

Epoch 2009 Feb. 18.0 TT = JDT 2454880.5
T 2009 Mar. 7.6418 TT                                   MPC
q   2.355556             (2000.0)            P               Q
n   0.1036853      Peri.  127.5316      +0.1561891      -0.9805765
a   4.487362       Node   313.0365      +0.8472938      +0.1947432
e   0.475069       Incl.    9.3411      +0.5076397      -0.0233420
P   9.51
From 604 observations 1989-2008, mean residual 0".7.  Nongravitational
     parameters A1 = +0.76, A2 = -0.2457.

・ 星図

・ 光度変化

        m1 = 7.0 + 5 logΔ + 20 log r

---------------------------------------------------------------------

軌道要素はMPCのEphemerides and Orbital Elementsに掲載されたものです。
星図はステラナビゲータ Ver.8 (アストロアーツ) で作成したものです。
光度グラフはComet for Windowsで作成したものです。

---------------------------------------------------------------------

Copyright(C) Seiichi Yoshida (comet@aerith.net). All rights reserved.